Ketchikan, AK

3:47 AM AKST on January 21, 2019 (GMT -0900)
Ketchikan International

Weather History for PAKT - November, 2018

Change the Weather History Date:

Monday, November 5, 2018

  Actual Average Record
Temperature  
Mean Temperature 44 °F -  
Max Temperature 48 °F 47 °F 64 °F (1949)
Min Temperature 41 °F 37 °F 19 °F (2003)
Degree Days  
Heating Degree Days 20    
Moisture  
Dew Point 41 °F    
Average Humidity 87    
Maximum Humidity 96    
Minimum Humidity 76    
Precipitation  
Precipitation 0.60 in - - ()
Sea Level Pressure  
Sea Level Pressure 29.87 in    
Wind  
Wind Speed 5 mph (WNW)    
Max Wind Speed 12 mph    
Max Gust Speed -    
Visibility 9 miles    
Events Rain    
Averages and records for this station are not official NWS values.
T = Trace of Precipitation, MM = Missing Value Source: NWS Daily Summary

Daily Weather History Graph

Daily Weather History Graph

Search for Another Location

Airport or City:

Astronomy

Nov. 05, 2018 Rise Set
Actual Time 7:00 AM AKST 3:59 PM AKST
Civil Twilight 6:20 AM AKST 4:39 PM AKST
Nautical Twilight 5:37 AM AKST 5:22 PM AKST
Astronomical Twilight 4:54 AM AKST 6:05 PM AKST
Moon 4:06 AM AKST (11/5) 3:52 PM AKST (11/5)
Length of Visible Light 10h 18m
Length of Day
8h 59m
Waning Crescent, 4% of the Moon is Illuminated
Nov 5
Waning Crescent
Nov 7
New
Nov 15
First Quarter
Nov 22
Full
Nov 29
Last Quarter

Hourly Weather History & Observations

Time (AKST) Temp. Windchill Dew Point Humidity Pressure Visibility Wind Dir Wind Speed Gust Speed Precip Events Conditions
12:07 AM 48.0 °F - 46.0 °F 93% 29.69 in 4.0 mi Calm Calm - 0.05 in Rain Rain
12:19 AM 46.9 °F - 45.0 °F 93% 29.69 in 4.0 mi Calm Calm - 0.09 in Rain Rain
12:53 AM 46.9 °F - 45.0 °F 93% 29.69 in 2.5 mi WNW 3.5 mph - 0.22 in Rain Rain
1:27 AM 46.9 °F - 45.0 °F 93% 29.69 in 3.0 mi WNW 4.6 mph - 0.14 in Rain Rain
1:39 AM 46.4 °F 43.5 °F 44.6 °F 93% 29.69 in 2.0 mi WNW 5.8 mph - N/A Rain Heavy Rain
1:53 AM 46.0 °F 42.5 °F 45.0 °F 96% 29.70 in 3.0 mi WNW 6.9 mph - 0.26 in Rain Rain
2:53 AM 46.0 °F 42.5 °F 44.1 °F 93% 29.71 in 10.0 mi WNW 6.9 mph - 0.10 in Rain Light Rain
3:53 AM 46.0 °F 41.4 °F 43.0 °F 89% 29.73 in 10.0 mi NW 9.2 mph - 0.01 in   Overcast
4:24 AM 46.0 °F 42.5 °F 42.1 °F 86% 29.74 in 10.0 mi WNW 6.9 mph - 0.00 in Rain Light Rain
4:53 AM 46.0 °F 41.9 °F 42.1 °F 86% 29.75 in 10.0 mi WNW 8.1 mph - 0.01 in Rain Light Rain
5:00 AM 45.0 °F 41.2 °F 42.1 °F 90% 29.75 in 10.0 mi NW 6.9 mph - 0.00 in Rain Light Rain
5:53 AM 44.1 °F 39.5 °F 41.0 °F 89% 29.77 in 10.0 mi WNW 8.1 mph - 0.00 in Rain Light Rain
6:07 AM 44.1 °F 39.5 °F 41.0 °F 89% 29.77 in 10.0 mi NW 8.1 mph - 0.00 in Rain Light Rain
6:34 AM 44.6 °F 40.7 °F 41.0 °F 87% 29.78 in 10.0 mi NW 6.9 mph - N/A Rain Light Rain
6:53 AM 44.6 °F 40.7 °F 39.2 °F 81% 29.80 in 10.0 mi WNW 6.9 mph - N/A Rain Light Rain
7:51 AM 42.8 °F 39.3 °F 39.2 °F 87% 29.82 in 10.0 mi WNW 5.8 mph - N/A Rain Light Rain
7:53 AM 42.8 °F 39.3 °F 39.2 °F 87% 29.83 in 10.0 mi WNW 5.8 mph - N/A Rain Light Rain
8:53 AM 44.6 °F 39.7 °F 41.0 °F 87% 29.85 in 10.0 mi NW 9.2 mph - N/A Rain Light Rain
9:53 AM 44.6 °F 39.2 °F 42.8 °F 93% 29.88 in 10.0 mi NW 10.4 mph - N/A Rain Light Rain
10:53 AM 44.6 °F 40.2 °F 41.0 °F 87% 29.91 in 10.0 mi WNW 8.1 mph - N/A   Mostly Cloudy
11:53 AM 44.6 °F 40.2 °F 41.0 °F 87% 29.93 in 10.0 mi WNW 8.1 mph - N/A   Mostly Cloudy
12:53 PM 44.6 °F 40.2 °F 39.2 °F 81% 29.95 in 10.0 mi WNW 8.1 mph - N/A   Mostly Cloudy
1:53 PM 44.6 °F 39.7 °F 39.2 °F 81% 29.97 in 10.0 mi WNW 9.2 mph - N/A   Mostly Cloudy
2:53 PM 44.1 °F 39.5 °F 39.9 °F 85% 29.99 in 10.0 mi WNW 8.1 mph - N/A   Mostly Cloudy
3:53 PM 44.6 °F 40.7 °F 39.2 °F 81% 30.01 in 10.0 mi WNW 6.9 mph - N/A   Overcast
4:53 PM 44.1 °F 40.8 °F 37.9 °F 79% 30.03 in 10.0 mi WNW 5.8 mph - N/A   Overcast
5:53 PM 43.0 °F 38.2 °F 39.0 °F 86% 30.04 in 10.0 mi NW 8.1 mph - N/A   Overcast
6:53 PM 43.0 °F 38.8 °F 39.0 °F 86% 30.06 in 10.0 mi NW 6.9 mph - N/A   Overcast
7:53 PM 44.1 °F 38.1 °F 37.0 °F 76% 30.07 in 10.0 mi NW 11.5 mph - N/A   Overcast
8:53 PM 42.1 °F 38.4 °F 37.0 °F 82% 30.09 in 10.0 mi WNW 5.8 mph - N/A   Mostly Cloudy
9:53 PM 42.1 °F 37.1 °F 37.0 °F 82% 30.11 in 10.0 mi WNW 8.1 mph - N/A   Overcast
10:53 PM 41.0 °F 36.4 °F 36.0 °F 82% 30.13 in 10.0 mi NW 6.9 mph - N/A   Mostly Cloudy
11:53 PM 41.0 °F 35.8 °F 36.0 °F 82% 30.15 in 10.0 mi WNW 8.1 mph - N/A   Overcast